TimeCST,TemperatureF,Dew PointF,Humidity,Sea Level PressureIn,VisibilityMPH,Wind Direction,Wind SpeedMPH,Gust SpeedMPH,PrecipitationIn,Events,Conditions,WindDirDegrees,DateUTC
12:52 AM,30.9,30.0,96,30.46,0.2,Calm,Calm,-,N/A,Fog,Light Freezing Fog,0,2012-11-18 06:52:00
1:08 AM,30.2,30.2,100,30.44,1.0,Calm,Calm,-,N/A,,Clear,0,2012-11-18 07:08:00
1:16 AM,30.2,30.2,100,30.44,0.5,Calm,Calm,-,N/A,Fog,Light Freezing Fog,0,2012-11-18 07:16:00
1:33 AM,30.2,30.2,100,30.44,0.2,Calm,Calm,-,N/A,Fog,Light Freezing Fog,0,2012-11-18 07:33:00
1:47 AM,30.2,28.4,93,30.44,0.5,Calm,Calm,-,N/A,Fog,Light Freezing Fog,0,2012-11-18 07:47:00
1:52 AM,30.0,28.9,96,30.47,0.8,Calm,Calm,-,N/A,,Clear,0,2012-11-18 07:52:00
2:01 AM,30.2,30.2,100,30.44,1.2,Calm,Calm,-,N/A,,Clear,0,2012-11-18 08:01:00
2:21 AM,28.4,28.4,100,30.44,0.5,Calm,Calm,-,N/A,Fog,Light Freezing Fog,0,2012-11-18 08:21:00
2:39 AM,30.2,28.4,93,30.43,1.0,Calm,Calm,-,N/A,,Clear,0,2012-11-18 08:39:00
2:52 AM,30.0,28.0,92,30.46,1.2,SSE,3.5,-,N/A,,Clear,150,2012-11-18 08:52:00
2:58 AM,28.4,28.4,100,30.43,3.0,SSE,3.5,-,N/A,,Clear,150,2012-11-18 08:58:00
3:52 AM,32.0,30.9,96,30.45,5.0,SSE,3.5,-,N/A,,Clear,150,2012-11-18 09:52:00
4:52 AM,41.0,37.0,86,30.44,6.0,SSE,6.9,-,N/A,,Clear,150,2012-11-18 10:52:00
5:52 AM,39.0,36.0,89,30.43,5.0,SSE,4.6,-,N/A,,Clear,160,2012-11-18 11:52:00
6:52 AM,34.0,33.1,96,30.45,3.0,SSE,4.6,-,N/A,,Clear,150,2012-11-18 12:52:00
7:52 AM,41.0,36.0,82,30.45,3.0,SSE,4.6,-,N/A,,Haze,160,2012-11-18 13:52:00
8:52 AM,45.0,39.0,80,30.45,5.0,SSE,8.1,-,N/A,,Haze,150,2012-11-18 14:52:00
9:52 AM,48.0,37.9,68,30.45,6.0,ESE,6.9,-,N/A,,Haze,120,2012-11-18 15:52:00
10:52 AM,48.9,37.9,66,30.43,6.0,SE,5.8,-,N/A,,Haze,130,2012-11-18 16:52:00
11:52 AM,51.1,37.9,61,30.40,6.0,ESE,6.9,-,N/A,,Haze,110,2012-11-18 17:52:00
12:52 PM,51.1,37.0,59,30.38,6.0,SE,5.8,-,N/A,,Haze,130,2012-11-18 18:52:00
1:52 PM,51.1,37.9,61,30.38,7.0,ESE,8.1,-,N/A,,Clear,110,2012-11-18 19:52:00
2:52 PM,48.0,36.0,63,30.38,6.0,SE,5.8,-,N/A,,Haze,140,2012-11-18 20:52:00
3:52 PM,46.9,37.9,71,30.37,6.0,SE,3.5,-,N/A,,Haze,140,2012-11-18 21:52:00
4:52 PM,45.0,37.9,76,30.36,7.0,SE,5.8,-,N/A,,Clear,130,2012-11-18 22:52:00
5:52 PM,41.0,37.0,86,30.38,6.0,South,3.5,-,N/A,,Clear,170,2012-11-18 23:52:00
6:52 PM,41.0,37.0,86,30.38,6.0,SSE,4.6,-,N/A,,Clear,150,2012-11-19 00:52:00
7:52 PM,44.1,39.9,85,30.36,7.0,SSE,5.8,-,N/A,,Clear,150,2012-11-19 01:52:00
8:52 PM,39.0,37.0,93,30.37,6.0,SSE,3.5,-,N/A,,Clear,150,2012-11-19 02:52:00
9:52 PM,44.1,37.9,79,30.34,9.0,SSE,4.6,-,N/A,,Clear,160,2012-11-19 03:52:00
10:52 PM,44.1,36.0,73,30.33,9.0,SSE,4.6,-,N/A,,Clear,160,2012-11-19 04:52:00
11:52 PM,37.0,35.1,93,30.33,9.0,Calm,Calm,-,N/A,,Clear,0,2012-11-19 05:52:00